• Join FlightAware (Why Join?)
  • Login
  • US Flag 
02:24AM EST


 

Airport Tracker/Info


-or-


 

Live Flight TrackerFlight Track Log ✈ SWA322 ✈ 05-Apr-2014 ✈ KLGA - KBNA

Flight Track Log - Related Links

Times and Time Zones

All times are in EDT time to prevent confusion due to time zone crossing. See the SWA322 flight status page for this flight to view local times or setup timezone preferences in your user account.

Time Position Orientation Groundspeed Altitude Reporting Facility
EDT Latitude Longitude Course Direction KTS MPH feet Rate Location/Type
04:53PM 40.8167 -73.9000 323° Northwest 172 198 1,900  Level New York TRACON
04:54PM 40.8500 -73.9333 323° Northwest 202 232 5,300 3,350 Climbing New York TRACON
04:55PM 40.8667 -74.0167 285° West 232 267 8,600 3,000 Climbing New York TRACON
04:56PM 40.8500 -74.1167 258° West 262 302 11,300 2,700 Climbing New York TRACON
04:57PM 40.8333 -74.2167 258° West 323 372 14,000 2,850 Climbing New York TRACON
04:58PM 40.8167 -74.3333 259° West 337 388 17,000 1,563 Climbing New York TRACON
04:59PM 40.7956 -74.4558 257° West 325 374 17,100 149 Climbing New York Center
05:00PM 40.7747 -74.5711 257° West 325 374 17,300 1,317 Climbing New York Center
05:01PM 40.7383 -74.6739 245° Southwest 331 381 19,800 2,634 Climbing New York Center
05:02PM 40.6958 -74.7875 244° Southwest 343 395 22,700 2,903 Climbing New York Center
05:04PM 40.6450 -74.9242 244° Southwest 350 403 25,800 2,371 Climbing New York Center
05:05PM 40.6017 -75.0392 244° Southwest 351 404 27,600 1,597 Climbing New York Center
05:06PM 40.5561 -75.1589 243° Southwest 368 423 29,100 1,742 Climbing New York Center
05:07PM 40.5103 -75.2800 244° Southwest 372 428 31,200 2,049 Climbing New York Center
05:08PM 40.4578 -75.4172 243° Southwest 371 427 33,300 1,805 Climbing New York Center
05:09PM 40.4114 -75.5381 243° Southwest 372 428 34,900 1,403 Climbing New York Center
05:10PM 40.3619 -75.6681 244° Southwest 371 427 36,200 1,161 Climbing New York Center
05:11PM 40.3144 -75.7883 243° Southwest 371 427 37,300 1,016 Climbing New York Center
05:12PM 40.2706 -75.9033 243° Southwest 373 429 38,300 878 Climbing New York Center
05:13PM 40.2242 -76.0244 243° Southwest 373 429 39,100 732 Climbing New York Center
05:14PM 40.1700 -76.1622 243° Southwest 376 433 39,800 435 Climbing New York Center
05:15PM 40.1256 -76.2786 243° Southwest 377 434 40,000 97 Climbing New York Center
05:16PM 40.0708 -76.3986 239° Southwest 382 440 40,000  Level New York Center
05:17PM 40.0161 -76.5169 239° Southwest 382 440 40,000  Level New York Center
05:18PM 39.9494 -76.6603 239° Southwest 383 441 40,000  Level New York Center
05:19PM 39.8933 -76.7806 239° Southwest 386 444 40,000  Level New York Center
05:20PM 39.8486 -76.8753 238° Southwest 391 450 40,000  Level Washington Center
05:21PM 39.7908 -76.9956 238° Southwest 391 450 40,000  Level Washington Center
05:22PM 39.7375 -77.1133 240° Southwest 391 450 40,000  Level Washington Center
05:23PM 39.6797 -77.2336 238° Southwest 391 450 40,000  Level Washington Center
05:24PM 39.6236 -77.3536 239° Southwest 391 450 40,000  Level Washington Center
05:25PM 39.5678 -77.4706 238° Southwest 391 450 40,000  Level Washington Center
05:26PM 39.5117 -77.5900 239° Southwest 391 450 40,000  Level Washington Center
05:27PM 39.4533 -77.7094 238° Southwest 391 450 40,000  Level Washington Center
05:28PM 39.3969 -77.8286 239° Southwest 391 450 40,000  Level Washington Center
05:29PM 39.3447 -77.9506 241° Southwest 391 450 40,000  Level Washington Center
05:30PM 39.2964 -78.0722 243° Southwest 391 450 40,000  Level Washington Center
05:31PM 39.2500 -78.1967 244° Southwest 386 444 40,000  Level Washington Center
05:32PM 39.1994 -78.3156 241° Southwest 386 444 40,000  Level Washington Center
05:33PM 39.1528 -78.4369 244° Southwest 386 444 40,000  Level Washington Center
05:34PM 39.1019 -78.5553 241° Southwest 386 444 40,000  Level Washington Center
05:35PM 39.0717 -78.6822 253° West 381 438 40,000  Level Washington Center
05:36PM 39.0414 -78.8094 253° West 375 432 40,000  Level Washington Center
05:37PM 39.0131 -78.9336 254° West 370 426 40,000  Level Washington Center
05:38PM 38.9844 -79.0606 254° West 370 426 40,000  Level Washington Center
05:39PM 38.9536 -79.1847 252° West 370 426 40,000  Level Washington Center
05:40PM 38.9247 -79.3086 253° West 375 432 40,000  Level Washington Center
05:41PM 38.8958 -79.4325 253° West 375 432 40,000  Level Washington Center
05:42PM 38.8647 -79.5561 252° West 375 432 40,000  Level Washington Center
05:43PM 38.8372 -79.6906 255° West 381 438 40,000  Level Washington Center
05:44PM 38.8106 -79.8011 253° West 375 432 40,000  Level Washington Center
05:45PM 38.7800 -79.9111 250° West 370 426 40,000  Level Indianapolis Center
05:46PM 38.7472 -80.0383 252° West 372 428 40,000  Level Indianapolis Center
05:47PM 38.7103 -80.1917 253° West 373 429 40,000  Level Indianapolis Center
05:48PM 38.6789 -80.3194 253° West 373 429 40,000  Level Indianapolis Center
05:49PM 38.6481 -80.4475 253° West 374 430 40,000  Level Indianapolis Center
05:50PM 38.6158 -80.5747 252° West 374 430 40,000  Level Indianapolis Center
05:51PM 38.5842 -80.7022 252° West 375 432 40,000  Level Indianapolis Center
05:52PM 38.5511 -80.8292 252° West 375 432 40,000  Level Indianapolis Center
05:53PM 38.5197 -80.9553 252° West 375 432 40,000  Level Indianapolis Center
05:54PM 38.4881 -81.0800 252° West 372 428 40,000  Level Indianapolis Center
05:55PM 38.4494 -81.2297 252° West 371 427 40,000  Level Indianapolis Center
05:56PM 38.4172 -81.3550 252° West 370 426 40,000  Level Indianapolis Center
05:57PM 38.3850 -81.4808 252° West 370 426 40,000  Level Indianapolis Center
05:58PM 38.3525 -81.6056 252° West 370 426 40,000  Level Indianapolis Center
05:59PM 38.3203 -81.7294 252° West 370 426 40,000  Level Indianapolis Center
06:00PM 38.2889 -81.8508 252° West 365 420 40,000  Level Indianapolis Center
06:01PM 38.2569 -81.9717 251° West 363 418 40,000  Level Indianapolis Center
06:02PM 38.2253 -82.0917 251° West 360 414 40,000  Level Indianapolis Center
06:03PM 38.1867 -82.2344 251° West 357 411 40,000  Level Indianapolis Center
06:04PM 38.1544 -82.3550 251° West 357 411 40,000  Level Indianapolis Center
06:05PM 38.1217 -82.4764 251° West 359 413 40,000  Level Indianapolis Center
06:06PM 38.0889 -82.5975 251° West 359 413 40,000  Level Indianapolis Center
06:07PM 38.0447 -82.7125 244° Southwest 362 417 40,000  Level Indianapolis Center
06:08PM 37.9936 -82.8236 240° Southwest 366 421 40,000  Level Indianapolis Center
06:09PM 37.9342 -82.9508 239° Southwest 364 419 40,000  Level Indianapolis Center
06:10PM 37.8847 -83.0589 240° Southwest 360 414 40,000 -387 Level Indianapolis Center
06:12PM 37.8350 -83.1644 239° Southwest 354 407 39,200 -1,065 Descending Indianapolis Center
06:13PM 37.7856 -83.2692 239° Southwest 353 406 37,800 -1,500 Descending Indianapolis Center
06:14PM 37.7353 -83.3758 239° Southwest 353 406 36,100 -1,645 Descending Indianapolis Center
06:15PM 37.6842 -83.4828 239° Southwest 353 406 34,400 -1,839 Descending Indianapolis Center
06:16PM 37.6253 -83.6075 239° Southwest 353 406 32,300 -1,645 Descending Indianapolis Center
06:17PM 37.5731 -83.7178 239° Southwest 361 415 31,000 -629 Descending Indianapolis Center
06:18PM 37.5186 -83.8317 239° Southwest 375 432 31,000  Level Indianapolis Center
06:19PM 37.4656 -83.9436 239° Southwest 375 432 31,000  Level Indianapolis Center
06:20PM 37.4119 -84.0553 239° Southwest 374 430 31,000 -537 Level Indianapolis Center
06:21PM 37.3497 -84.1869 239° Southwest 374 430 29,900 -1,024 Descending Indianapolis Center
06:22PM 37.2922 -84.3025 238° Southwest 383 441 28,900 -919 Descending Indianapolis Center
06:23PM 37.2347 -84.4217 239° Southwest 394 453 28,000 -919 Descending Indianapolis Center
06:24PM 37.1767 -84.5414 239° Southwest 398 458 27,000 -1,016 Descending Indianapolis Center
06:25PM 37.1161 -84.6636 238° Southwest 409 471 25,900 -1,065 Descending Indianapolis Center
06:26PM 37.0597 -84.7775 238° Southwest 392 451 24,800 -1,113 Descending Indianapolis Center
06:27PM 36.9961 -84.9089 239° Southwest 382 440 23,600 -1,073 Descending Indianapolis Center
06:28PM 36.9417 -85.0189 238° Southwest 376 433 22,600 -976 Descending Indianapolis Center
06:29PM 36.8869 -85.1297 238° Southwest 376 433 21,600 -968 Descending Indianapolis Center
06:30PM 36.8347 -85.2347 238° Southwest 365 420 20,600 -774 Descending Indianapolis Center
06:31PM 36.7819 -85.3397 238° Southwest 361 415 20,000 -293 Descending Indianapolis Center
06:32PM 36.7306 -85.4436 238° Southwest 357 411 20,000  Level Indianapolis Center
06:33PM 36.6711 -85.5714 240° Southwest 355 409 20,000  Level Indianapolis Center
06:34PM 36.6219 -85.6767 240° Southwest 355 409 20,000  Level Indianapolis Center
06:35PM 36.5911 -85.7400 239° Southwest 355 409 20,000 -568 Level Memphis Center
06:36PM 36.5478 -85.8314 239° Southwest 355 409 19,100 -1,707 Descending Memphis Center
06:37PM 36.4914 -85.9508 240° Southwest 344 396 16,500 -2,419 Descending Memphis Center
06:38PM 36.4433 -86.0511 239° Southwest 338 389 14,100 -2,293 Descending Memphis Center
06:39PM 36.3967 -86.1486 239° Southwest 332 382 11,800 -1,707 Descending Memphis Center
06:40PM 36.3503 -86.2453 239° Southwest 327 376 10,600 -1,016 Descending Memphis Center
06:41PM 36.3061 -86.3347 239° Southwest 310 357 9,700 -1,171 Descending Memphis Center
06:42PM 36.2672 -86.4175 240° Southwest 284 327 8,200 -1,463 Descending Memphis Center
06:43PM 36.2269 -86.4978 238° Southwest 276 318 6,700 -1,113 Descending Memphis Center
06:44PM 36.1633 -86.5378 207° Southwest 263 303 5,900 -823 Descending Memphis Center
06:45PM 36.0981 -86.5658 199° South 251 289 5,000 -780 Descending Memphis Center
06:46PM 36.0361 -86.5925 199° South 237 273 4,300 -878 Descending Memphis Center
06:47PM 35.9953 -86.6386 222° Southwest 238 274 3,200 -1,024 Descending Memphis Center
06:48PM 36.0392 -86.6756 326° Northwest 198 228 2,200 -976 Descending Memphis Center
06:49PM 36.0847 -86.6786 357° North 156 180 1,200 -774 Descending Memphis Center
06:50PM 36.1144 -86.6664 18° North 141 162 600 -581 Descending Memphis Center